Regional Weather Roundup
Issued by NWS

Home | Current Version | Previous Version | Text Only | Print | Product List | Glossary Off
Versions: 1 2 3 4 5 6 7 8 9 10 11 12 13 14 15 16 17 18 19 20 21 22 23 24 25 26 27 28 29 30 31 32 33 34 35 36 37 38 39 40 41 42 43 44 45 46 47 48 49 50

271
ASUS43 KTOP 212359
RWRKS

WEATHER ROUNDUP FOR KANSAS
NATIONAL WEATHER SERVICE GOODLAND KS
600 PM CST TUE NOV 21 2017

NOTE:  "FAIR" INDICATES FEW OR NO CLOUDS BELOW 12,000 FEET WITH NO
SIGNIFICANT WEATHER AND/OR OBSTRUCTIONS TO VISIBILITY.

KSZ001>006-013>018-027>032-041>047-220100-
NORTHWEST KANSAS

CITY           SKY/WX    TMP DP  RH WIND       PRES   REMARKS
GOODLAND       CLEAR     35  24  64 N6        30.32S
6HR MIN TEMP:  35; 6HR MAX TEMP:  48;

HAYS           CLEAR     36  16  44 NE9       30.36R
HILL CITY      CLEAR     35  16  45 N8        30.36R
6HR MIN TEMP:  35; 6HR MAX TEMP:  49;

RUSSELL        CLEAR     36  14  40 N9        30.33R
6HR MIN TEMP:  36; 6HR MAX TEMP:  49;

$$

KSZ061>065-074>080-084>089-220100-
SOUTHWEST KANSAS

CITY           SKY/WX    TMP DP  RH WIND       PRES   REMARKS
DODGE CITY     CLEAR     40  21  46 N10       30.33R WCI  33
6HR MIN TEMP:  40; 6HR MAX TEMP:  53;

GARDEN CITY    CLEAR     39  22  50 N10       30.34R WCI  32
6HR MIN TEMP:  39; 6HR MAX TEMP:  53;

GREAT BEND     CLEAR     39  15  37 N10       30.34R WCI  32
LIBERAL        CLEAR     46  26  45 NE13      30.33R
$$

KSZ066>073-081>083-090>101-220100-
SOUTHEAST KANSAS

CITY           SKY/WX    TMP DP  RH WIND       PRES   REMARKS
CHANUTE        CLEAR     43   9  24 N16G24    30.27R
6HR MIN TEMP:  43; 6HR MAX TEMP:  58;

COFFEYVILLE    CLEAR     47  16  29 N10       30.25R
6HR MIN TEMP:  47; 6HR MAX TEMP:  61;

HUTCHINSON     CLEAR     40   9  28 N10G21    30.33R WCI  33
6HR MIN TEMP:  40; 6HR MAX TEMP:  53;

MEDICINE LODGE   N/A     44  19  36 N15G24    30.31R
NEWTON         CLEAR     37   6  27 N16       30.32R WCI  28
PARSONS        CLEAR     45  15  30 N9        30.26R
6HR MIN TEMP:  45; 6HR MAX TEMP:  60;

WICHITA INTL   CLEAR     43   9  24 N16G28    30.31R
6HR MIN TEMP:  43; 6HR MAX TEMP:  56;

WICHITA JABRA  CLEAR     40   7  25 N18G26    30.31R WCI  31
6HR MIN TEMP:  40; 6HR MAX TEMP:  55;

WICHITA MCCONL CLEAR     42   7  23 N18G25    30.30R
WINFIELD       CLEAR     44  14  29 N18G26    30.29R
6HR MIN TEMP:  44; 6HR MAX TEMP:  59;

$$

KSZ007>012-019>026-033>040-048>060-102>105-220100-
NORTHEAST KANSAS

CITY           SKY/WX    TMP DP  RH WIND       PRES   REMARKS
CONCORDIA      CLEAR     32  11  41 N9        30.36R
6HR MIN TEMP:  32; 6HR MAX TEMP:  46;

EMPORIA        CLEAR     37  13  37 N17G24    30.31R WCI  27
6HR MIN TEMP:  37; 6HR MAX TEMP:  53;

LAWRENCE       CLEAR     35  17  47 NW15      30.33R WCI  25
6HR MIN TEMP:  35; 6HR MAX TEMP:  52;

MANHATTAN      CLEAR     35  14  42 N7        30.36R
6HR MIN TEMP:  35; 6HR MAX TEMP:  49;

OLATHE IND     CLEAR     34  17  50 N18       30.30R WCI  23
6HR MIN TEMP:  34; 6HR MAX TEMP:  51;

OLATHE EXE     CLEAR     36  17  46 N16G23    30.29R WCI  26
6HR MIN TEMP:  36; 6HR MAX TEMP:  50; 6HR PCP: TRACE;

SALINA         CLEAR     37   9  31 N15       30.36R WCI  28
6HR MIN TEMP:  37; 6HR MAX TEMP:  51;

TOPEKA BILLARD CLEAR     34  17  50 N8        30.34R
6HR MIN TEMP:  33; 6HR MAX TEMP:  51;

TOPEKA FORBES  CLEAR     36  16  44 N14       30.32R WCI  27
6HR MIN TEMP:  36; 6HR MAX TEMP:  51;

$$




USA.gov is the U.S. government's official web portal to all federal, state and local government web resources and services.